timestamp,wind_dir_avg,wind_spd_avg,wind_spd_max_dir,wind_spd_gust,battery_voltage,lat,long
2022-08-21 00:04:01+00:00,54.0,9.27,52.0,10.31,12.41,47.59359,-54.27349
2022-08-21 00:14:01+00:00,56.0,8.41,54.0,9.19,12.41,47.59359,-54.27349
2022-08-21 00:24:01+00:00,58.0,7.56,54.0,8.48,12.41,47.59359,-54.27349
2022-08-21 00:34:01+00:00,60.0,7.15,56.0,8.12,12.41,47.59359,-54.27349
2022-08-21 00:44:01+00:00,57.0,8.2,57.0,9.05,12.41,47.59359,-54.27349
2022-08-21 00:54:01+00:00,55.0,8.81,52.0,9.99,12.41,47.59359,-54.27349
2022-08-21 01:04:01+00:00,55.0,9.28,53.0,9.95,12.41,47.59359,-54.27349
2022-08-21 01:14:00+00:00,54.0,9.72,52.0,10.45,12.41,47.59359,-54.27349
2022-08-21 01:24:00+00:00,50.0,8.11,50.0,9.51,12.41,47.59359,-54.27349
2022-08-21 01:34:00+00:00,54.0,8.01,58.0,8.61,12.41,47.59359,-54.27349
2022-08-21 01:44:00+00:00,59.0,7.11,54.0,7.97,12.41,47.59359,-54.27349
2022-08-21 01:54:00+00:00,56.0,6.35,57.0,7.5,12.41,47.59359,-54.27349
2022-08-21 02:04:00+00:00,54.0,8.97,54.0,9.88,12.41,47.59359,-54.27349
2022-08-21 02:14:00+00:00,52.0,8.56,50.0,9.67,12.41,47.59359,-54.27349
2022-08-21 02:24:00+00:00,31.0,6.55,36.0,7.55,12.41,47.59359,-54.27349
2022-08-21 02:34:00+00:00,58.0,7.17,57.0,7.78,12.41,47.59359,-54.27349
2022-08-21 02:44:00+00:00,57.0,7.19,57.0,7.94,12.41,47.59359,-54.27349
2022-08-21 02:54:00+00:00,51.0,7.99,50.0,8.71,12.41,47.59359,-54.27349
2022-08-21 03:04:00+00:00,50.0,6.91,49.0,7.66,12.41,47.59359,-54.27349
2022-08-21 03:14:00+00:00,59.0,7.37,59.0,8.12,12.41,47.59359,-54.27349
2022-08-21 03:24:00+00:00,55.0,7.75,50.0,8.47,12.41,47.59359,-54.27349
2022-08-21 03:34:00+00:00,54.0,8.5,54.0,9.36,12.41,47.59359,-54.27349
2022-08-21 03:44:00+00:00,45.0,8.42,56.0,10.57,12.41,47.59359,-54.27349
2022-08-21 03:54:00+00:00,49.0,8.28,52.0,9.31,12.41,47.59359,-54.27349
2022-08-21 04:04:00+00:00,42.0,7.18,44.0,8.24,12.41,47.59359,-54.27349
2022-08-21 04:14:00+00:00,44.0,8.15,46.0,9.3,12.41,47.59359,-54.27349
2022-08-21 04:24:00+00:00,41.0,7.99,44.0,9.01,12.41,47.59359,-54.27349
2022-08-21 04:34:00+00:00,42.0,8.59,43.0,9.77,12.41,47.59359,-54.27349
2022-08-21 04:44:00+00:00,47.0,7.56,50.0,8.64,12.41,47.59359,-54.27349
2022-08-21 04:54:00+00:00,51.0,8.1,52.0,9.03,12.41,47.59359,-54.27349
2022-08-21 05:04:00+00:00,42.0,8.0,43.0,9.09,12.41,47.59359,-54.27349
2022-08-21 05:14:00+00:00,45.0,8.16,42.0,8.64,12.33,47.59359,-54.27349
2022-08-21 05:24:00+00:00,26.0,6.89,26.0,7.8,12.33,47.59359,-54.27349
2022-08-21 05:34:00+00:00,37.0,6.31,44.0,7.38,12.33,47.59359,-54.27349
2022-08-21 05:44:00+00:00,53.0,7.99,51.0,8.64,12.33,47.59359,-54.27349
2022-08-21 05:54:00+00:00,46.0,7.35,48.0,8.34,12.33,47.59359,-54.27349
2022-08-21 06:04:00+00:00,46.0,7.8,49.0,8.56,12.33,47.59359,-54.27349
2022-08-21 06:14:00+00:00,45.0,7.6,47.0,8.28,12.33,47.59359,-54.27349
2022-08-21 06:24:00+00:00,41.0,7.96,41.0,8.73,12.33,47.59359,-54.27349
2022-08-21 06:34:00+00:00,23.0,6.89,30.0,7.98,12.33,47.59359,-54.27349
2022-08-21 06:44:00+00:00,26.0,5.96,20.0,6.9,12.33,47.59359,-54.27349
2022-08-21 06:54:00+00:00,14.0,6.79,11.0,7.65,12.33,47.59359,-54.27349
2022-08-21 07:04:00+00:00,22.0,6.28,19.0,7.44,12.33,47.59359,-54.27349
2022-08-21 07:14:00+00:00,15.0,6.76,12.0,7.41,12.33,47.59359,-54.27349
2022-08-21 07:24:00+00:00,14.0,5.9,16.0,7.21,12.33,47.59359,-54.27349
2022-08-21 07:34:00+00:00,12.0,6.12,13.0,6.77,12.33,47.59359,-54.27349
2022-08-21 07:44:00+00:00,11.0,6.82,18.0,7.41,12.33,47.59359,-54.27349
2022-08-21 07:54:00+00:00,12.0,6.73,16.0,7.34,12.33,47.59359,-54.27349
2022-08-21 08:04:00+00:00,14.0,6.56,15.0,7.63,12.33,47.59359,-54.27349
2022-08-21 08:14:00+00:00,21.0,6.88,31.0,7.72,12.33,47.59359,-54.27349
2022-08-21 08:24:00+00:00,29.0,8.22,33.0,8.96,12.33,47.59359,-54.27349
2022-08-21 08:34:00+00:00,36.0,7.83,31.0,8.88,12.33,47.59359,-54.27349
2022-08-21 08:44:00+00:00,22.0,7.27,27.0,8.3,12.33,47.59359,-54.27349
2022-08-21 08:54:00+00:00,32.0,5.29,29.0,6.02,12.33,47.59359,-54.27349
2022-08-21 09:04:00+00:00,41.0,4.8,41.0,5.71,12.33,47.59359,-54.27349
2022-08-21 09:14:00+00:00,46.0,6.71,38.0,7.84,12.25,47.59359,-54.27349
2022-08-21 09:24:00+00:00,40.0,6.88,47.0,7.94,12.25,47.59359,-54.27349
2022-08-21 09:34:00+00:00,43.0,7.95,50.0,8.7,12.25,47.59359,-54.27349
2022-08-21 09:44:00+00:00,37.0,6.0,40.0,7.42,12.25,47.59359,-54.27349
2022-08-21 09:54:00+00:00,38.0,4.73,40.0,5.45,12.25,47.59359,-54.27349
2022-08-21 10:04:00+00:00,32.0,5.54,35.0,6.33,12.25,47.59359,-54.27349
2022-08-21 10:14:00+00:00,26.0,4.57,29.0,5.73,12.49,47.59359,-54.27349
2022-08-21 10:24:00+00:00,25.0,4.43,22.0,5.93,12.49,47.59359,-54.27349
2022-08-21 10:34:00+00:00,68.0,4.8,73.0,5.44,12.49,47.59359,-54.27349
2022-08-21 10:44:00+00:00,71.0,3.98,70.0,5.15,12.49,47.59359,-54.27349
2022-08-21 10:54:00+00:00,72.0,4.22,75.0,5.98,12.49,47.59359,-54.27349
2022-08-21 11:04:00+00:00,67.0,6.19,54.0,6.94,12.49,47.59359,-54.27349
2022-08-21 11:14:00+00:00,65.0,4.04,70.0,4.99,12.73,47.59359,-54.27349
2022-08-21 11:24:00+00:00,34.0,2.76,37.0,3.05,12.73,47.59359,-54.27349
2022-08-21 11:34:00+00:00,49.0,3.51,45.0,4.4,12.73,47.59359,-54.27349
2022-08-21 11:44:00+00:00,53.0,3.11,58.0,3.78,12.73,47.59359,-54.27349
2022-08-21 11:54:00+00:00,69.0,2.95,64.0,4.32,12.73,47.59359,-54.27349
2022-08-21 12:04:00+00:00,66.0,2.72,70.0,4.03,12.73,47.59359,-54.27349
2022-08-21 12:14:00+00:00,73.0,2.57,76.0,3.17,13.29,47.59359,-54.27349
2022-08-21 12:24:00+00:00,74.0,2.56,74.0,3.36,13.29,47.59359,-54.27349
2022-08-21 12:34:00+00:00,63.0,3.09,70.0,3.76,13.29,47.59359,-54.27349
2022-08-21 12:44:00+00:00,45.0,2.65,48.0,3.11,13.29,47.59359,-54.27349
2022-08-21 12:54:00+00:00,47.0,1.69,36.0,2.04,13.29,47.59359,-54.27349
2022-08-21 13:04:00+00:00,58.0,2.52,58.0,2.77,13.29,47.59359,-54.27349
2022-08-21 13:14:00+00:00,58.0,1.41,47.0,1.83,13.53,47.59359,-54.27349
2022-08-21 13:24:00+00:00,42.0,1.91,38.0,2.2,13.53,47.59359,-54.27349
2022-08-21 13:34:00+00:00,48.0,1.71,51.0,1.98,13.53,47.59359,-54.27349
2022-08-21 13:44:00+00:00,63.0,2.78,57.0,3.18,13.53,47.59359,-54.27349
2022-08-21 13:54:00+00:00,52.0,2.43,58.0,2.97,13.53,47.59359,-54.27349
2022-08-21 14:04:00+00:00,52.0,2.91,51.0,3.43,13.53,47.59359,-54.27349
2022-08-21 14:14:00+00:00,99.0,2.35,107.0,3.74,13.44,47.59359,-54.27349
2022-08-21 14:24:00+00:00,77.0,2.21,60.0,3.33,13.44,47.59359,-54.27349
2022-08-21 14:34:00+00:00,119.0,1.86,137.0,3.17,13.44,47.59359,-54.27349
2022-08-21 14:44:00+00:00,62.0,2.89,67.0,3.28,13.44,47.59359,-54.27349
2022-08-21 14:54:00+00:00,53.0,1.96,47.0,2.2,13.44,47.59359,-54.27349
2022-08-21 15:04:00+00:00,58.0,1.56,40.0,1.91,13.44,47.59359,-54.27349
2022-08-21 15:14:00+00:00,53.0,1.56,42.0,1.85,13.53,47.59359,-54.27349
2022-08-21 15:24:00+00:00,50.0,1.02,53.0,1.42,13.53,47.59359,-54.27349
2022-08-21 15:34:00+00:00,48.0,1.01,49.0,1.31,13.53,47.59359,-54.27349
2022-08-21 15:44:00+00:00,48.0,1.31,49.0,1.64,13.53,47.59359,-54.27349
2022-08-21 15:54:00+00:00,56.0,1.89,59.0,2.17,13.53,47.59359,-54.27349
2022-08-21 16:04:00+00:00,63.0,0.54,75.0,0.74,13.53,47.59359,-54.27349
2022-08-21 16:14:00+00:00,59.0,0.52,20.0,0.81,13.68,47.59359,-54.27349
2022-08-21 16:24:00+00:00,140.0,0.68,146.0,0.88,13.68,47.59359,-54.27349
2022-08-21 16:34:00+00:00,129.0,1.01,144.0,1.24,13.68,47.59359,-54.27349
2022-08-21 16:44:00+00:00,139.0,1.25,141.0,1.41,13.68,47.59359,-54.27349
2022-08-21 16:54:00+00:00,148.0,1.84,148.0,2.07,13.68,47.59359,-54.27349
2022-08-21 17:04:00+00:00,163.0,2.68,164.0,2.87,13.68,47.59359,-54.27349
2022-08-21 17:14:01+00:00,154.0,3.11,154.0,3.36,13.84,47.59359,-54.27349
2022-08-21 17:24:01+00:00,150.0,3.64,148.0,3.89,13.84,47.59359,-54.27349
2022-08-21 17:34:01+00:00,152.0,3.13,153.0,3.42,13.84,47.59359,-54.27349
2022-08-21 17:44:01+00:00,152.0,2.65,148.0,2.87,13.84,47.59359,-54.27349
2022-08-21 17:54:01+00:00,161.0,2.61,162.0,2.77,13.84,47.59359,-54.27349
2022-08-21 18:04:01+00:00,164.0,2.45,165.0,2.73,13.84,47.59359,-54.27349
2022-08-21 18:14:01+00:00,161.0,2.34,161.0,2.53,13.84,47.59359,-54.27349
2022-08-21 18:24:01+00:00,175.0,2.21,173.0,2.65,13.84,47.59359,-54.27349
2022-08-21 18:34:01+00:00,210.0,2.22,209.0,2.71,13.84,47.59359,-54.27349
2022-08-21 18:44:01+00:00,208.0,2.23,211.0,2.43,13.84,47.59359,-54.27349
2022-08-21 18:54:01+00:00,191.0,2.53,192.0,2.79,13.84,47.59359,-54.27349
2022-08-21 19:04:01+00:00,194.0,2.48,191.0,2.93,13.84,47.59359,-54.27349
2022-08-21 19:14:00+00:00,214.0,2.79,216.0,3.08,13.68,47.59359,-54.27349
2022-08-21 19:24:00+00:00,211.0,3.91,210.0,4.26,13.68,47.59359,-54.27349
2022-08-21 19:34:00+00:00,228.0,6.14,229.0,6.68,13.68,47.59359,-54.27349
2022-08-21 19:44:00+00:00,222.0,4.93,222.0,5.5,13.68,47.59359,-54.27349
2022-08-21 19:54:00+00:00,223.0,5.27,220.0,5.94,13.68,47.59359,-54.27349
2022-08-21 20:04:00+00:00,218.0,5.12,222.0,5.63,13.68,47.59359,-54.27349
2022-08-21 20:14:00+00:00,220.0,4.78,234.0,5.55,13.68,47.59359,-54.27349
2022-08-21 20:24:00+00:00,213.0,4.77,215.0,5.43,13.68,47.59359,-54.27349
2022-08-21 20:34:00+00:00,217.0,5.09,223.0,5.62,13.68,47.59359,-54.27349
2022-08-21 20:44:00+00:00,216.0,5.91,215.0,6.77,13.68,47.59359,-54.27349
2022-08-21 20:54:00+00:00,221.0,6.14,226.0,6.96,13.68,47.59359,-54.27349
2022-08-21 21:04:00+00:00,226.0,5.63,227.0,6.6,13.68,47.59359,-54.27349
2022-08-21 21:14:01+00:00,223.0,5.73,228.0,6.35,13.37,47.59359,-54.27349
2022-08-21 21:24:01+00:00,226.0,5.75,221.0,6.51,13.37,47.59359,-54.27349
2022-08-21 21:34:01+00:00,226.0,6.12,225.0,6.64,13.37,47.59359,-54.27349
2022-08-21 21:44:01+00:00,224.0,5.46,218.0,6.86,13.37,47.59359,-54.27349
2022-08-21 21:54:01+00:00,224.0,5.08,225.0,5.64,13.37,47.59359,-54.27349
2022-08-21 22:04:01+00:00,226.0,4.55,229.0,5.18,13.37,47.59359,-54.27349
2022-08-21 22:14:00+00:00,225.0,5.28,228.0,6.01,13.05,47.59359,-54.27349
2022-08-21 22:24:00+00:00,219.0,6.24,219.0,6.81,13.05,47.59359,-54.27349
2022-08-21 22:34:00+00:00,217.0,6.12,218.0,7.38,13.05,47.59359,-54.27349
2022-08-21 22:44:00+00:00,215.0,6.04,215.0,6.78,13.05,47.59359,-54.27349
2022-08-21 22:54:00+00:00,224.0,5.35,220.0,5.87,13.05,47.59359,-54.27349
2022-08-21 23:04:00+00:00,243.0,5.65,245.0,6.52,13.05,47.59359,-54.27349
2022-08-21 23:14:00+00:00,242.0,6.05,245.0,6.61,12.49,47.59359,-54.27349
2022-08-21 23:24:00+00:00,238.0,5.82,240.0,6.5,12.49,47.59359,-54.27349
2022-08-21 23:34:00+00:00,239.0,6.43,251.0,7.44,12.49,47.59359,-54.27349
2022-08-21 23:44:00+00:00,240.0,6.54,239.0,7.21,12.49,47.59359,-54.27349
2022-08-21 23:54:00+00:00,234.0,5.4,239.0,6.72,12.49,47.59359,-54.27349
